DW3310 Weather Reports


Display with metric or nautical units.
time (UTC)temp
F
wind
direction
speed
MPH
gust
MPH
rain 1hr
in
rain 24hr
in
rain mn
in
humidity
%
barometer
mb
20260507171559 52 360 0.0 0.0 0.00 0.35 0.00 56 1006.7
20260507170042 50 304 0.0 0.0 0.00 0.35 0.00 56 1006.9
20260507164548 51 294 0.0 0.0 0.00 0.35 0.00 53 1006.9
20260507163048 52 290 0.0 0.0 0.00 0.35 0.00 47 1007.1
20260507161543 51 178 0.0 0.0 0.00 0.35 0.00 54 1007.3
20260507160046 51 360 0.0 0.0 0.00 0.35 0.00 54 1007.2
20260507154534 50 360 0.0 0.0 0.00 0.35 0.00 64 1007.2
20260507153033 50 301 0.0 0.0 0.00 0.35 0.00 72 1007.5
20260507151531 48 360 0.0 0.0 0.00 0.35 0.00 74 1007.6
20260507150031 48 360 0.0 0.0 0.00 0.35 0.00 75 1007.6
20260507144534 48 360 0.0 0.0 0.00 0.35 0.00 73 1007.6
20260507143027 48 360 0.0 0.0 0.00 0.35 0.00 76 1007.6
20260507141526 47 360 0.0 0.0 0.00 0.35 0.00 77 1007.6
20260507140025 48 293 0.0 0.0 0.00 0.35 0.00 75 1007.7
20260507134523 47 360 0.0 0.0 0.00 0.35 0.00 76 1007.6
20260507133022 47 360 0.0 0.0 0.00 0.35 0.00 79 1007.6
20260507131520 47 360 0.0 0.0 0.00 0.35 0.00 80 1007.8
20260507130026 46 360 0.0 0.0 0.00 0.35 0.00 79 1007.8
20260507124518 45 360 0.0 0.0 0.00 0.35 0.00 78 1007.6
20260507123014 45 360 0.0 0.0 0.00 0.35 0.00 81 1007.6
20260507121514 44 360 0.0 0.0 0.00 0.35 0.00 82 1007.7
20260507120011 44 360 0.0 0.0 0.00 0.35 0.00 84 1007.9
20260507114511 43 360 0.0 0.0 0.00 0.35 0.00 85 1007.9
20260507113014 43 360 0.0 0.0 0.00 0.35 0.00 86 1007.7
20260507111513 42 360 0.0 0.0 0.00 0.35 0.00 87 1007.7
20260507110019 42 360 0.0 0.0 0.00 0.35 0.00 88 1007.6
20260507104505 41 360 0.0 0.0 0.00 0.35 0.00 89 1007.3
20260507103005 41 360 0.0 0.0 0.00 0.35 0.00 90 1007.3
20260507101504 41 360 0.0 0.0 0.00 0.35 0.00 91 1007.6
20260507100003 41 360 0.0 0.0 0.00 0.35 0.00 92 1007.3
20260507094559 41 360 0.0 0.0 0.00 0.35 0.00 92 1007.3
20260507093058 42 360 0.0 0.0 0.00 0.35 0.00 92 1007.3
20260507091557 42 360 0.0 0.0 0.00 0.35 0.00 93 1007.2
20260507090058 42 360 0.0 0.0 0.00 0.35 0.00 94 1006.7
20260507084554 42 360 0.0 0.0 0.00 0.35 0.00 94 1006.8
20260507083055 42 360 0.0 0.0 0.00 0.35 0.00 94 1006.8
20260507081550 42 360 0.0 0.0 0.00 0.35 0.00 94 1006.7
20260507080049 42 360 0.0 0.0 0.00 0.35 0.00 95 1006.5
20260507074604 42 360 0.0 0.0 0.00 0.35 0.00 95 1006.4
20260507073046 42 360 0.0 0.0 0.00 0.35 0.00 95 1006.2
20260507071541 42 360 0.0 0.0 0.00 0.35 0.00 95 1005.9
20260507070036 43 360 0.0 0.0 0.00 0.35 0.00 95 1005.9
20260507064533 43 360 0.0 0.0 0.00 0.35 0.00 95 1006.1
20260507063046 43 360 0.0 0.0 0.00 0.35 0.00 95 1006.0
20260507061533 43 360 0.0 0.0 0.00 0.35 0.00 96 1005.7
20260507060038 44 360 0.0 0.0 0.00 0.35 0.00 96 1005.8
20260507054525 44 360 0.0 0.0 0.00 0.35 0.00 96 1005.9
20260507053024 44 273 0.0 0.0 0.00 0.35 0.00 96 1005.5
20260507051524 44 360 0.0 0.0 0.00 0.35 0.00 96 1005.5
20260507050020 44 360 0.0 0.0 0.00 0.35 0.00 96 1005.5
20260507044519 45 360 0.0 0.0 0.00 0.35 0.00 96 1005.6
20260507043018 45 360 0.0 0.0 0.00 0.35 0.00 96 1005.7
20260507041515 45 360 0.0 0.0 0.00 0.35 0.00 96 1005.9
20260507040009 46 360 0.0 0.0 0.01 0.35 0.00 96 1005.6
20260507034520 46 360 0.0 0.0 0.02 0.35 0.35 96 1005.5
20260507033006 46 360 0.0 0.0 0.02 0.35 0.35 96 1005.4
20260507031504 47 360 0.0 0.0 0.02 0.35 0.35 96 1005.3
20260507030005 47 360 0.0 0.0 0.02 0.34 0.34 96 1005.3
20260507024559 48 360 0.0 0.0 0.02 0.33 0.33 96 1005.1
20260507023056 49 360 0.0 0.0 0.02 0.33 0.33 96 1004.9
20260507021554 50 360 0.0 0.0 0.03 0.33 0.33 96 1004.8
20260507020052 51 360 0.0 0.0 0.02 0.32 0.32 96 1004.8
20260507014552 52 360 0.0 0.0 0.06 0.31 0.31 96 1004.8
20260507013056 52 360 0.0 0.0 0.07 0.31 0.31 96 1004.9
20260507011545 53 360 0.0 0.0 0.06 0.30 0.30 95 1004.8
20260507010053 54 360 0.0 0.0 0.06 0.30 0.30 94 1004.7
20260507004539 57 360 0.0 0.0 0.01 0.25 0.25 95 1004.3
20260507003038 57 163 0.0 0.0 0.01 0.24 0.24 95 1003.9
20260507001538 57 360 0.0 0.0 0.01 0.24 0.24 95 1003.8
20260507000036 57 360 0.0 0.0 0.01 0.24 0.24 94 1003.5
20260506234537 57 360 0.0 0.0 0.01 0.25 0.24 94 1003.5
20260506233053 58 360 0.0 0.0 0.00 0.24 0.23 93 1003.3
20260506231538 58 163 0.0 0.0 0.00 0.24 0.23 93 1003.2
20260506230033 58 360 0.0 0.0 0.00 0.24 0.23 92 1003.0
20260506224531 59 360 0.0 0.0 0.00 0.25 0.23 92 1003.4
20260506223030 59 360 0.0 0.0 0.00 0.25 0.23 92 1003.3
20260506221528 59 360 0.0 0.0 0.00 0.25 0.23 92 1003.7
20260506220030 59 360 0.0 0.0 0.00 0.25 0.23 92 1003.6
20260506214527 59 360 0.0 0.0 0.00 0.25 0.23 92 1003.7
20260506213027 59 150 0.0 0.0 0.00 0.25 0.23 92 1003.9
20260506211528 59 178 0.0 0.0 0.00 0.25 0.23 93 1003.7
20260506210033 59 360 0.0 0.0 0.02 0.25 0.23 93 1003.9
20260506204524 59 123 0.0 0.0 0.07 0.25 0.23 93 1003.9
20260506203022 59 103 0.0 0.0 0.09 0.25 0.23 93 1004.3
20260506201525 58 184 0.0 0.0 0.10 0.25 0.23 93 1004.4
20260506200034 58 360 0.0 0.0 0.08 0.22 0.20 92 1004.5
20260506194518 59 146 0.0 0.0 0.04 0.18 0.16 91 1004.5
20260506193016 58 360 0.0 0.0 0.03 0.16 0.14 92 1004.6
20260506191514 59 158 0.0 0.0 0.03 0.15 0.13 92 1004.8
20260506190014 59 360 0.0 0.0 0.04 0.14 0.12 92 1005.2
20260506184512 59 86 0.0 0.0 0.07 0.14 0.12 91 1005.3
20260506183011 59 360 0.0 0.0 0.08 0.13 0.11 91 1005.3
20260506181514 59 171 0.0 0.0 0.09 0.12 0.10 91 1005.8
20260506180015 60 122 0.0 0.0 0.07 0.09 0.07 89 1006.0
20260506174505 60 360 0.0 0.0 0.05 0.07 0.05 89 1006.1
20260506173005 60 107 0.0 0.0 0.03 0.05 0.03 87 1006.1